GW5725 Weather Reports


time (UTC)temp
C
wind
direction
speed
KPH
gust
KPH
rain 1hr
cm
rain 24hr
cm
rain mn
cm
humidity
%
barometer
mb
20260906052517 22 301 0.0 0.0 0.00 0.00 0.00 86 1013.3
20260906052019 22 304 0.0 0.0 0.00 0.00 0.00 86 1013.3
20260906051533 23 307 0.0 3.2 0.00 0.00 0.00 86 1013.4
20260906051018 23 309 0.0 3.2 0.00 0.00 0.00 86 1013.5
20260906050516 22 307 0.0 3.2 0.00 0.00 0.00 86 1013.5
20260906050035 22 301 0.0 1.6 0.00 0.00 0.00 86 1013.5
20260906045514 22 273 0.0 0.0 0.00 0.00 0.00 86 1013.6
20260906045010 22 272 0.0 0.0 0.00 0.00 0.00 86 1013.7
20260906044524 22 271 0.0 0.0 0.00 0.00 0.00 86 1013.5
20260906044016 22 273 0.0 0.0 0.00 0.00 0.00 86 1013.5
20260906043516 22 271 0.0 0.0 0.00 0.00 0.00 86 1013.5
20260906043031 23 273 0.0 0.0 0.00 0.00 0.00 86 1013.5
20260906042516 23 268 0.0 0.0 0.00 0.00 0.00 86 1013.4
20260906042016 23 276 0.0 3.2 0.00 0.00 0.00 86 1013.5
20260906041533 23 273 0.0 3.2 0.00 0.00 0.00 86 1013.5
20260906041017 23 274 0.0 3.2 0.00 0.00 0.00 86 1013.5
20260906040518 23 275 0.0 3.2 0.00 0.00 0.00 86 1013.5
20260906040039 23 276 0.0 3.2 0.00 0.00 0.00 86 1013.4
20260906035520 23 275 0.0 3.2 0.00 0.00 0.00 85 1013.5
20260906035019 23 275 0.0 3.2 0.00 0.00 0.00 85 1013.5
20260906034534 23 273 0.0 3.2 0.00 0.00 0.00 85 1013.5
20260906034014 23 271 0.0 0.0 0.00 0.00 0.00 85 1013.6
20260906033516 23 271 0.0 3.2 0.00 0.00 0.00 84 1013.8
20260906033011 23 273 0.0 3.2 0.00 0.00 0.00 84 1013.8
20260906032504 23 273 0.0 3.2 0.00 0.00 0.00 84 1013.7
20260906032006 23 274 0.0 3.2 0.00 0.00 0.00 84 1013.7
20260906031531 23 272 0.0 3.2 0.00 0.00 0.00 84 1013.7
20260906031007 23 274 0.0 3.2 0.00 0.00 0.00 84 1013.7
20260906030508 23 275 0.0 3.2 0.00 0.00 0.00 84 1013.5
20260906030035 23 276 0.0 3.2 0.00 0.00 0.00 84 1013.5
20260906025508 23 277 0.0 3.2 0.00 0.00 0.00 84 1013.5
20260906025013 23 277 0.0 3.2 0.00 0.00 0.00 84 1013.6
20260906024516 23 92 0.0 1.6 0.00 0.00 0.00 83 1013.7
20260906024014 23 92 1.6 3.2 0.00 0.00 0.00 84 1013.8
20260906023514 23 290 0.0 3.2 0.00 0.00 0.00 84 1013.7
20260906023026 23 289 0.0 3.2 0.00 0.00 0.00 84 1013.7
20260906022516 23 213 0.0 3.2 0.00 0.00 0.00 84 1013.7
20260906022014 23 200 0.0 3.2 0.00 0.00 0.00 84 1013.7
20260906021507 23 129 0.0 3.2 0.00 0.00 0.00 83 1013.7
20260906021006 24 129 0.0 3.2 0.00 0.00 0.00 83 1013.6
20260906020508 24 128 0.0 3.2 0.00 0.00 0.00 83 1013.6
20260906020009 24 128 1.6 3.2 0.00 0.00 0.00 82 1013.6
20260906015508 24 142 0.0 3.2 0.00 0.00 0.00 82 1013.5
20260906015010 24 134 0.0 3.2 0.00 0.00 0.00 81 1013.4
20260906014526 24 119 0.0 3.2 0.00 0.00 0.00 81 1013.3
20260906014015 24 150 0.0 3.2 0.00 0.00 0.00 80 1013.1
20260906013514 24 94 0.0 3.2 0.00 0.00 0.00 80 1013.3
20260906013023 24 94 1.6 3.2 0.00 0.00 0.00 80 1013.2
20260906012514 24 290 0.0 0.0 0.00 0.00 0.00 79 1013.1
20260906012017 25 290 0.0 0.0 0.00 0.00 0.00 79 1012.9
20260906011538 25 291 0.0 0.0 0.00 0.00 0.00 79 1012.8
20260906011018 25 291 0.0 1.6 0.00 0.00 0.00 79 1012.8
20260906010506 25 291 0.0 3.2 0.00 0.00 0.00 78 1012.8
20260906010007 25 292 0.0 3.2 0.00 0.00 0.00 78 1012.8
20260906005508 25 292 0.0 3.2 0.00 0.00 0.00 78 1012.8
20260906005010 25 292 0.0 3.2 0.00 0.00 0.00 78 1012.8
20260906004524 25 306 0.0 3.2 0.00 0.00 0.00 77 1012.8
20260906004011 25 306 0.0 3.2 0.00 0.00 0.00 77 1012.8
20260906003510 25 306 0.0 3.2 0.00 0.00 0.00 76 1012.6
20260906003025 25 306 1.6 3.2 0.00 0.00 0.00 76 1012.5
20260906002512 25 221 0.0 3.2 0.00 0.00 0.00 76 1012.8
20260906002015 25 128 0.0 3.2 0.00 0.00 0.00 75 1012.7
20260906001530 25 114 0.0 3.2 0.00 0.00 0.00 75 1012.6
20260906001016 25 118 0.0 3.2 0.00 0.00 0.00 74 1012.4
20260906000523 25 120 0.0 3.2 0.00 0.00 0.00 72 1012.5
20260906000030 26 128 0.0 3.2 0.00 0.00 0.00 72 1012.4
20260905235508 26 130 0.0 3.2 0.00 0.00 0.00 72 1012.3
20260905235007 26 124 0.0 1.6 0.00 0.00 0.00 71 1012.2
20260905234512 26 125 0.0 3.2 0.00 0.00 0.00 71 1012.2
20260905234011 26 134 0.0 3.2 0.00 0.00 0.00 71 1012.0
20260905233518 26 134 0.0 3.2 0.00 0.00 0.00 70 1012.0
20260905233015 26 223 0.0 3.2 0.00 0.00 0.00 70 1012.1
20260905232513 26 153 0.0 3.2 0.00 0.00 0.00 69 1012.1
20260905232013 26 129 0.0 3.2 0.00 0.00 0.00 70 1012.2
20260905231530 26 305 0.0 3.2 0.00 0.00 0.00 69 1012.3
20260905231016 26 304 0.0 3.2 0.00 0.00 0.00 69 1012.2
20260905230516 26 304 0.0 3.2 0.00 0.00 0.00 68 1012.3
20260905230033 26 305 0.0 3.2 0.00 0.00 0.00 70 1012.3
20260905225517 26 305 0.0 3.2 0.00 0.00 0.00 70 1012.3
20260905225017 27 304 0.0 3.2 0.00 0.00 0.00 70 1012.3
20260905224520 27 304 0.0 3.2 0.00 0.00 0.00 70 1012.3
20260905224009 27 304 0.0 3.2 0.00 0.00 0.00 71 1012.4
20260905223508 27 304 0.0 3.2 0.00 0.00 0.00 70 1012.4
20260905223017 27 304 0.0 3.2 0.00 0.00 0.00 70 1012.3
20260905222510 27 305 0.0 3.2 0.00 0.00 0.00 70 1012.3
20260905222014 27 304 0.0 3.2 0.00 0.00 0.00 70 1012.3
20260905221523 27 304 0.0 3.2 0.00 0.00 0.00 69 1012.2
20260905221014 27 304 0.0 3.2 0.00 0.00 0.00 69 1012.2
20260905220513 27 304 0.0 3.2 0.00 0.00 0.00 69 1012.4
20260905220030 27 219 0.0 3.2 0.00 0.00 0.00 68 1012.4
20260905215518 27 304 0.0 3.2 0.00 0.00 0.00 70 1012.4
20260905215016 27 317 0.0 3.2 0.00 0.00 0.00 68 1012.5
20260905214530 27 317 0.0 3.2 0.00 0.00 0.00 69 1012.5
20260905214018 27 311 1.6 1.6 0.00 0.00 0.00 68 1012.7
20260905213508 27 169 0.0 4.8 0.00 0.00 0.00 68 1012.8
20260905213032 27 74 0.0 4.8 0.00 0.00 0.00 68 1012.8
20260905212513 27 281 0.0 3.2 0.00 0.00 0.00 68 1012.9
20260905212013 27 63 1.6 3.2 0.00 0.00 0.00 68 1013.1
20260905211521 27 352 1.6 3.2 0.00 0.00 0.00 69 1013.2
20260905211018 27 104 1.6 3.2 0.00 0.00 0.00 69 1013.2
20260905210513 27 283 1.6 3.2 0.00 0.00 0.00 68 1013.3
20260905210025 27 92 1.6 3.2 0.00 0.00 0.00 68 1013.2
20260905205517 27 315 0.0 3.2 0.00 0.00 0.00 68 1013.3
20260905205018 27 304 0.0 6.4 0.00 0.00 0.00 71 1013.1
20260905204531 27 90 1.6 6.4 0.00 0.00 0.00 70 1012.9
20260905204018 27 65 1.6 6.4 0.00 0.00 0.00 71 1012.8
20260905203518 27 132 0.0 6.4 0.00 0.00 0.00 69 1012.8
20260905203035 27 337 0.0 6.4 0.00 0.00 0.00 69 1012.9
20260905202508 27 219 1.6 3.2 0.00 0.00 0.00 70 1013.0
20260905202015 27 315 0.0 4.8 0.00 0.00 0.00 69 1013.0
20260905201516 26 345 3.2 4.8 0.00 0.00 0.00 69 1012.9
20260905201015 26 338 3.2 4.8 0.00 0.00 0.00 70 1013.0
20260905200514 26 360 0.0 3.2 0.00 0.00 0.00 72 1013.1
20260905200027 26 305 0.0 3.2 0.00 0.00 0.00 71 1013.0
20260905195518 26 284 0.0 3.2 0.00 0.00 0.00 72 1013.1
20260905195019 26 323 1.6 3.2 0.00 0.00 0.00 72 1013.3
20260905194535 26 315 1.6 9.7 0.00 0.00 0.00 71 1013.5
20260905194017 26 242 0.0 9.7 0.00 0.00 0.00 71 1013.4
20260905193517 27 76 0.0 8.0 0.00 0.00 0.00 69 1013.4
20260905193029 27 352 3.2 22.5 0.00 0.00 0.00 66 1013.5
20260905192518 28 281 4.8 22.5 0.00 0.00 0.00 62 1013.8
20260905192015 30 38 6.4 22.5 0.00 0.00 0.00 58 1014.0
20260905191514 31 194 3.2 20.9 0.00 0.00 0.00 60 1013.8
20260905191012 31 106 4.8 20.9 0.00 0.00 0.00 57 1013.5
20260905190512 32 296 8.0 20.9 0.00 0.00 0.00 55 1013.3
20260905190026 32 351 1.6 6.4 0.00 0.00 0.00 55 1013.1
20260905185515 32 78 1.6 11.3 0.00 0.00 0.00 53 1013.0
20260905185015 33 308 1.6 11.3 0.00 0.00 0.00 54 1012.9
20260905184533 33 29 1.6 4.8 0.00 0.00 0.00 53 1012.8
20260905184014 33 317 0.0 3.2 0.00 0.00 0.00 54 1012.9
20260905183515 33 284 0.0 3.2 0.00 0.00 0.00 53 1012.7
20260905183035 33 257 0.0 3.2 0.00 0.00 0.00 51 1012.8
20260905182518 34 249 1.6 3.2 0.00 0.00 0.00 51 1012.8
20260905182016 34 346 0.0 3.2 0.00 0.00 0.00 50 1013.1
20260905181538 34 336 0.0 4.8 0.00 0.00 0.00 48 1013.0
20260905181015 35 302 0.0 4.8 0.00 0.00 0.00 51 1013.0
20260905180512 35 78 0.0 4.8 0.00 0.00 0.00 50 1013.0
20260905180020 35 82 1.6 4.8 0.00 0.00 0.00 49 1013.0
20260905175514 35 53 1.6 4.8 0.00 0.00 0.00 49 1013.2
20260905175014 35 352 1.6 4.8 0.00 0.00 0.00 49 1013.3
20260905174526 35 331 1.6 6.4 0.00 0.00 0.00 48 1013.4
20260905174003 35 225 1.6 11.3 0.00 0.00 0.00 47 1013.4
20260905173505 35 138 1.6 11.3 0.00 0.00 0.00 49 1013.4
20260905173004 34 70 3.2 6.4 0.00 0.00 0.00 51 1013.4
20260905172504 34 113 4.8 9.7 0.00 0.00 0.00 49 1013.5
20260905172009 35 67 3.2 9.7 0.00 0.00 0.00 50 1013.5
20260905171522 34 325 1.6 6.4 0.00 0.00 0.00 50 1013.6
20260905171013 34 290 1.6 4.8 0.00 0.00 0.00 50 1013.7
20260905170509 34 351 1.6 11.3 0.00 0.00 0.00 51 1013.8
20260905170018 35 276 3.2 11.3 0.00 0.00 0.00 50 1013.8
20260905165516 35 317 3.2 6.4 0.00 0.00 0.00 50 1014.0
20260905165012 35 228 1.6 4.8 0.00 0.00 0.00 50 1014.0
20260905164524 35 162 1.6 9.7 0.00 0.00 0.00 50 1014.1
20260905164002 34 326 1.6 9.7 0.00 0.00 0.00 53 1014.2
20260905163506 34 340 3.2 11.3 0.00 0.00 0.00 52 1014.2
20260905163006 34 300 4.8 11.3 0.00 0.00 0.00 52 1014.4
20260905162504 34 59 3.2 9.7 0.00 0.00 0.00 52 1014.5
20260905162006 34 94 4.8 9.7 0.00 0.00 0.00 52 1014.5
20260905161506 34 350 1.6 6.4 0.00 0.00 0.00 53 1014.5
20260905161006 33 227 1.6 6.4 0.00 0.00 0.00 52 1014.6
20260905160509 33 342 1.6 6.4 0.00 0.00 0.00 54 1014.6
20260905160034 33 330 1.6 6.4 0.00 0.00 0.00 54 1014.5
20260905155510 33 263 1.6 6.4 0.00 0.00 0.00 55 1014.6
20260905155011 33 32 1.6 6.4 0.00 0.00 0.00 56 1014.6
20260905154519 33 342 3.2 6.4 0.00 0.00 0.00 56 1014.6
20260905154012 33 271 1.6 6.4 0.00 0.00 0.00 56 1014.6
20260905153517 32 285 1.6 4.8 0.00 0.00 0.00 56 1014.7
20260905153004 32 257 1.6 6.4 0.00 0.00 0.00 57 1014.8
20260905152505 32 330 1.6 6.4 0.00 0.00 0.00 59 1014.7
20260905152005 32 9 1.6 4.8 0.00 0.00 0.00 57 1014.7
20260905151508 32 113 1.6 3.2 0.00 0.00 0.00 57 1014.7
20260905151013 32 23 0.0 4.8 0.00 0.00 0.00 60 1014.7
20260905150506 32 325 3.2 4.8 0.00 0.00 0.00 59 1014.7
20260905150011 32 174 1.6 6.4 0.00 0.00 0.00 59 1014.8
20260905145516 32 342 1.6 6.4 0.00 0.00 0.00 61 1014.8
20260905145011 32 114 1.6 6.4 0.00 0.00 0.00 60 1014.9
20260905144519 31 119 1.6 6.4 0.00 0.00 0.00 61 1014.9
20260905144012 31 292 1.6 4.8 0.00 0.00 0.00 61 1014.9
20260905143512 31 128 1.6 6.4 0.00 0.00 0.00 63 1015.0
20260905143031 31 352 1.6 6.4 0.00 0.00 0.00 65 1015.1
20260905142517 31 9 0.0 4.8 0.00 0.00 0.00 66 1015.1
20260905142014 30 197 1.6 4.8 0.00 0.00 0.00 65 1015.1
20260905141504 30 238 1.6 4.8 0.00 0.00 0.00 66 1015.2
20260905141005 30 314 1.6 6.4 0.00 0.00 0.00 67 1015.3
20260905140521 30 295 1.6 6.4 0.00 0.00 0.00 68 1015.2
20260905140010 30 348 3.2 4.8 0.00 0.00 0.00 68 1015.2
20260905135509 30 22 0.0 3.2 0.00 0.00 0.00 69 1015.3
20260905135008 29 343 0.0 3.2 0.00 0.00 0.00 71 1015.3
20260905134513 29 308 0.0 3.2 0.00 0.00 0.00 71 1015.4
20260905134012 28 297 0.0 3.2 0.00 0.00 0.00 72 1015.4
20260905133515 28 63 0.0 3.2 0.00 0.00 0.00 75 1015.4
20260905133024 28 284 1.6 3.2 0.00 0.00 0.00 75 1015.5
20260905132512 27 63 0.0 3.2 0.00 0.00 0.00 76 1015.4
20260905132017 27 320 1.6 3.2 0.00 0.00 0.00 77 1015.4
20260905131544 27 294 1.6 4.8 0.00 0.00 0.00 78 1015.5
20260905131018 27 300 3.2 4.8 0.00 0.00 0.00 79 1015.6
20260905130504 26 350 1.6 6.4 0.00 0.00 0.00 80 1015.5
20260905130007 26 344 3.2 6.4 0.00 0.00 0.00 80 1015.5
20260905125510 26 322 1.6 6.4 0.00 0.00 0.00 81 1015.5
20260905125009 26 309 1.6 4.8 0.00 0.00 0.00 82 1015.3
20260905124514 26 279 1.6 6.4 0.00 0.00 0.00 82 1015.3
20260905124011 26 352 1.6 6.4 0.00 0.00 0.00 82 1015.1
20260905123508 26 338 1.6 3.2 0.00 0.00 0.00 82 1015.1
20260905123020 25 336 0.0 3.2 0.00 0.00 0.00 83 1015.1
20260905122518 25 336 0.0 3.2 0.00 0.00 0.00 84 1015.1
20260905122012 25 331 0.0 3.2 0.00 0.00 0.00 84 1015.3
20260905121529 25 302 1.6 3.2 0.00 0.00 0.00 84 1015.2
20260905121020 25 204 0.0 3.2 0.00 0.00 0.00 85 1015.2
20260905120515 24 352 0.0 3.2 0.00 0.00 0.00 85 1015.2
20260905120030 24 352 0.0 3.2 0.00 0.00 0.00 85 1015.1
20260905115508 24 309 1.6 3.2 0.00 0.00 0.00 86 1015.1
20260905115008 24 15 0.0 3.2 0.00 0.00 0.00 86 1015.1
20260905114509 23 325 0.0 3.2 0.00 0.00 0.00 86 1015.2
20260905114009 23 298 0.0 3.2 0.00 0.00 0.00 86 1015.1
20260905113511 23 296 0.0 3.2 0.00 0.00 0.00 86 1015.0
20260905113025 23 294 0.0 3.2 0.00 0.00 0.00 86 1014.8
20260905112513 23 159 0.0 3.2 0.00 0.00 0.00 86 1014.8
20260905112014 23 293 0.0 3.2 0.00 0.00 0.00 86 1014.8
20260905111526 23 292 0.0 3.2 0.00 0.00 0.00 86 1014.7
20260905111016 23 291 0.0 3.2 0.00 0.00 0.00 86 1014.6
20260905110513 23 267 0.0 3.2 0.00 0.00 0.00 86 1014.5
20260905110028 23 299 0.0 3.2 0.00 0.00 0.00 86 1014.5
20260905105515 23 299 0.0 3.2 0.00 0.00 0.00 86 1014.4
20260905105018 23 275 0.0 3.2 0.00 0.00 0.00 86 1014.3
20260905104518 23 287 0.0 3.2 0.00 0.00 0.00 86 1014.2
20260905104009 23 302 0.0 3.2 0.00 0.00 0.00 86 1014.2
20260905103508 23 268 0.0 3.2 0.00 0.00 0.00 86 1014.1
20260905103022 23 268 0.0 3.2 0.00 0.00 0.00 85 1014.1
20260905102511 23 269 0.0 3.2 0.00 0.00 0.00 85 1014.1
20260905102016 23 270 0.0 3.2 0.00 0.00 0.00 85 1014.0
20260905101537 23 287 0.0 3.2 0.00 0.00 0.00 85 1013.9
20260905101014 23 296 0.0 3.2 0.00 0.00 0.00 85 1013.8
20260905100516 23 277 0.0 3.2 0.00 0.00 0.00 85 1013.8
20260905100028 23 301 0.0 3.2 0.00 0.00 0.00 85 1013.7
20260905095515 23 299 1.6 3.2 0.00 0.00 0.00 85 1013.8
20260905095019 23 214 0.0 3.2 0.00 0.00 0.00 85 1013.9
20260905094530 23 214 0.0 3.2 0.00 0.00 0.00 85 1013.8
20260905094019 23 13 0.0 3.2 0.00 0.00 0.00 85 1013.8
20260905093509 23 13 0.0 3.2 0.00 0.00 0.00 85 1013.8
20260905093013 24 13 0.0 1.6 0.00 0.00 0.00 85 1013.9
20260905092510 24 13 0.0 3.2 0.00 0.00 0.00 84 1013.9
20260905092011 24 13 0.0 3.2 0.00 0.00 0.00 84 1014.0
20260905091523 24 13 0.0 3.2 0.00 0.00 0.00 84 1014.1
20260905091012 24 13 0.0 3.2 0.00 0.00 0.00 84 1013.9
20260905090513 24 296 0.0 3.2 0.00 0.00 0.00 84 1014.0
20260905090028 24 298 0.0 3.2 0.00 0.00 0.00 84 1013.9
20260905085517 24 279 0.0 3.2 0.00 0.00 0.00 84 1014.0
20260905085019 24 304 0.0 3.2 0.00 0.00 0.00 84 1014.1
20260905084533 23 298 0.0 3.2 0.00 0.00 0.00 84 1014.1
20260905084008 23 85 0.0 3.2 0.00 0.00 0.00 84 1014.2
20260905083508 23 85 0.0 3.2 0.00 0.00 0.00 84 1014.3
20260905083012 23 85 0.0 3.2 0.00 0.00 0.00 84 1014.3
20260905082507 23 121 0.0 1.6 0.00 0.00 0.00 83 1014.3
20260905082012 23 121 0.0 3.2 0.00 0.00 0.00 83 1014.3
20260905081516 23 120 0.0 3.2 0.00 0.00 0.00 83 1014.3
20260905081013 24 121 0.0 3.2 0.00 0.00 0.00 83 1014.3
20260905080513 24 121 0.0 3.2 0.00 0.00 0.00 82 1014.4
20260905080032 24 121 0.0 0.0 0.00 0.00 0.00 82 1014.4
20260905075519 24 121 0.0 3.2 0.00 0.00 0.00 82 1014.5
20260905075013 24 121 0.0 3.2 0.00 0.00 0.00 81 1014.5
20260905074531 24 121 0.0 3.2 0.00 0.00 0.00 81 1014.5
20260905074011 24 123 0.0 0.0 0.00 0.00 0.00 81 1014.6
20260905073506 24 125 0.0 0.0 0.00 0.00 0.00 80 1014.6
20260905073016 25 126 0.0 0.0 0.00 0.00 0.00 80 1014.7
20260905072509 25 126 0.0 3.2 0.00 0.00 0.00 80 1014.7
20260905072009 25 126 0.0 3.2 0.00 0.00 0.00 79 1014.7
20260905071515 25 126 0.0 3.2 0.00 0.00 0.00 79 1014.8
20260905071009 25 126 0.0 3.2 0.00 0.00 0.00 79 1014.8
20260905070511 25 126 0.0 3.2 0.00 0.00 0.00 78 1014.9
20260905070031 25 126 0.0 3.2 0.00 0.00 0.00 78 1014.7
20260905065516 25 134 0.0 3.2 0.00 0.00 0.00 77 1014.8
20260905065016 25 134 0.0 3.2 0.00 0.00 0.00 77 1014.8
20260905064534 25 135 0.0 0.0 0.00 0.00 0.00 76 1014.8
20260905064016 25 135 0.0 0.0 0.00 0.00 0.00 76 1014.8
20260905063515 25 135 0.0 3.2 0.00 0.00 0.00 76 1014.9
20260905063008 25 135 0.0 3.2 0.00 0.00 0.00 75 1014.9
20260905062511 26 135 0.0 3.2 0.00 0.00 0.00 75 1015.0
20260905062008 26 135 0.0 3.2 0.00 0.00 0.00 75 1015.1
20260905061512 26 134 0.0 3.2 0.00 0.00 0.00 74 1015.1
20260905061011 26 174 0.0 3.2 0.00 0.00 0.00 74 1015.2
20260905060516 26 175 0.0 3.2 0.00 0.00 0.00 73 1015.3
20260905060031 26 124 0.0 3.2 0.00 0.00 0.00 73 1015.3
20260905055512 26 124 0.0 3.2 0.00 0.00 0.00 73 1015.4
20260905055012 26 124 0.0 3.2 0.00 0.00 0.00 73 1015.5
20260905054530 26 124 0.0 1.6 0.00 0.00 0.00 73 1015.5
20260905054016 26 124 0.0 3.2 0.00 0.00 0.00 72 1015.4
20260905053516 26 124 0.0 3.2 0.00 0.00 0.00 73 1015.5
20260905053035 26 124 0.0 3.2 0.00 0.00 0.00 72 1015.5